Yaogan Weixing 17

operational
NORAD ID: 39239 Int'l Des: 2013-046 Owner: ZZB Country: CN Constellation: yaogan
LEO

About Yaogan Weixing 17

Description loading...

Live Position

Loading 3D Globe...

Upcoming Passes

Altitude History

Altitude vs Time

uPlot chart will show altitude changes over time

Two-Line Element Set

1 39239U 13046A 26062.61775597 .00000081 00000-0 17124-3 0 9990
2 39239 63.3898 2.5266 0416875 11.3602 349.6486 13.45491840614088
Epoch: Mar 3, 2026 • Age: 42 hours

Current Status

Altitude 786.2 km
Velocity 7.61 km/s
Sub-Earth Point -1.02°S, 67°W
Launch Date Sep 1, 2013
Age 12.5 years
Type military

Technical Details

Classification Payload
Mass 500.00 kg
Dry Mass 500.00 kg
Total Mass 500.00 kg
Length 0.50 m
Diameter 0.50 m
Span 1.00 m
Shape Box + 2 Pan
Manufacturer CAST
Bus Type JB-8
Phase Status In Orbit
Owner/State ZZB/CN

Large Constellations

Loading constellations...